This is the latest recevied weather packets stored in our database for station/object 9A7DI-13. If no packets are shown the sender has not sent any weather packets the latest 10 day(s).
| Time | Temp. | Humidity | Pressure | Rain* | Wind** | Luminosity | Snow |
|---|---|---|---|---|---|---|---|
| 1788656798 | 18.89° C | 69% | 1032 hPa | - | - | - | - |
| 1788656198 | 18.89° C | 73% | 1031.9 hPa | - | - | - | - |
| 1788655598 | 18.89° C | 71% | 1031.9 hPa | - | - | - | - |
| 1788654998 | 18.89° C | 74% | 1031.8 hPa | - | - | - | - |
| 1788654398 | 18.89° C | 75% | 1031.9 hPa | - | - | - | - |
| 1788653798 | 18.89° C | 72% | 1031.9 hPa | - | - | - | - |
| 1788653198 | 18.89° C | 74% | 1031.9 hPa | - | - | - | - |
| 1788652598 | 19.44° C | 70% | 1031.9 hPa | - | - | - | - |
| 1788651998 | 19.44° C | 70% | 1031.9 hPa | - | - | - | - |
| 1788651398 | 19.44° C | 74% | 1031.8 hPa | - | - | - | - |
| 1788650798 | 19.44° C | 74% | 1031.9 hPa | - | - | - | - |
| 1788650198 | 19.44° C | 73% | 1031.8 hPa | - | - | - | - |
| 1788649599 | 19.44° C | 72% | 1031.9 hPa | - | - | - | - |
| 1788648998 | 20° C | 69% | 1031.7 hPa | - | - | - | - |
| 1788648399 | 20° C | 68% | 1031.8 hPa | - | - | - | - |
| 1788647799 | 20° C | 67% | 1031.7 hPa | - | - | - | - |
| 1788647199 | 20° C | 70% | 1031.6 hPa | - | - | - | - |
| 1788646599 | 20° C | 64% | 1031.6 hPa | - | - | - | - |
| 1788645999 | 20° C | 66% | 1031.5 hPa | - | - | - | - |
| 1788645401 | 20° C | 65% | 1031.4 hPa | - | - | - | - |
| 1788644799 | 20° C | 64% | 1031.3 hPa | - | - | - | - |
| 1788644199 | 20° C | 67% | 1031.4 hPa | - | - | - | - |
| 1788643599 | 20° C | 65% | 1031.1 hPa | - | - | - | - |
| 1788642999 | 20° C | 66% | 1031 hPa | - | - | - | - |
| 1788642399 | 20° C | 67% | 1030.9 hPa | - | - | - | - |
* Rain since midnight (hover to see other rain measurements)
** Current wind speed in m/s (hover to see current wind gust speed)